TimeCDT,TemperatureF,Dew PointF,Humidity,Sea Level PressureIn,VisibilityMPH,Wind Direction,Wind SpeedMPH,Gust SpeedMPH,PrecipitationIn,Events,Conditions,WindDirDegrees,DateUTC
12:58 AM,61.9,61.3,98,29.92,10.0,SSW,2.3,-,N/A,,Overcast,210,2013-04-01 05:58:00
1:33 AM,60.8,60.8,100,29.90,10.0,SW,3.5,-,N/A,,Mostly Cloudy,220,2013-04-01 06:33:00
1:58 AM,60.4,59.7,97,29.91,10.0,SW,3.5,-,N/A,,Mostly Cloudy,220,2013-04-01 06:58:00
2:08 AM,60.8,60.8,100,29.90,10.0,SW,4.6,-,N/A,,Mostly Cloudy,230,2013-04-01 07:08:00
2:38 AM,60.8,60.8,100,29.90,10.0,Variable,3.5,-,N/A,,Overcast,0,2013-04-01 07:38:00
2:48 AM,60.8,60.8,100,29.90,10.0,WSW,5.8,-,N/A,,Overcast,240,2013-04-01 07:48:00
2:58 AM,60.6,60.1,98,29.91,10.0,Variable,3.5,-,N/A,,Overcast,0,2013-04-01 07:58:00
3:28 AM,60.8,59.0,94,29.90,10.0,SSW,5.8,-,N/A,,Overcast,210,2013-04-01 08:28:00
3:58 AM,60.3,59.9,99,29.92,10.0,West,4.6,-,N/A,,Overcast,260,2013-04-01 08:58:00
4:58 AM,60.3,59.9,99,29.93,6.0,WSW,3.5,-,N/A,,Overcast,240,2013-04-01 09:58:00
5:03 AM,60.8,60.8,100,29.92,7.0,SSW,5.8,-,N/A,,Overcast,210,2013-04-01 10:03:00
5:38 AM,60.8,59.0,94,29.94,8.0,WSW,3.5,-,N/A,,Overcast,240,2013-04-01 10:38:00
5:48 AM,60.8,59.0,94,29.94,9.0,WSW,3.5,-,N/A,,Overcast,240,2013-04-01 10:48:00
5:58 AM,60.3,59.7,98,29.96,9.0,SW,3.5,-,N/A,,Overcast,230,2013-04-01 10:58:00
6:28 AM,60.8,59.0,94,29.96,8.0,WSW,4.6,-,N/A,,Overcast,250,2013-04-01 11:28:00
6:33 AM,60.8,59.0,94,29.97,8.0,Variable,2.3,-,N/A,,Overcast,0,2013-04-01 11:33:00
6:38 AM,60.8,59.0,94,29.97,8.0,WNW,3.5,-,N/A,,Overcast,290,2013-04-01 11:38:00
6:58 AM,60.3,59.7,98,29.99,8.0,WSW,2.3,-,N/A,,Overcast,240,2013-04-01 11:58:00
7:58 AM,61.0,60.3,97,30.01,10.0,WNW,3.5,-,N/A,,Overcast,290,2013-04-01 12:58:00
8:08 AM,60.8,60.8,100,30.00,10.0,WNW,3.5,-,N/A,,Overcast,290,2013-04-01 13:08:00
8:38 AM,60.8,60.8,100,30.01,10.0,WNW,5.8,-,N/A,,Overcast,300,2013-04-01 13:38:00
8:48 AM,60.8,59.0,94,30.01,10.0,NW,6.9,-,N/A,,Overcast,310,2013-04-01 13:48:00
8:58 AM,61.7,59.5,93,30.03,10.0,WNW,3.5,-,N/A,,Mostly Cloudy,300,2013-04-01 13:58:00
9:03 AM,62.6,60.8,94,30.02,10.0,NW,4.6,-,N/A,,Mostly Cloudy,310,2013-04-01 14:03:00
9:58 AM,65.1,58.8,80,30.04,10.0,NW,4.6,-,N/A,,Overcast,310,2013-04-01 14:58:00
10:03 AM,66.2,59.0,78,30.03,10.0,North,4.6,-,N/A,,Mostly Cloudy,350,2013-04-01 15:03:00
10:33 AM,68.0,59.0,73,30.03,10.0,NNW,6.9,-,N/A,,Mostly Cloudy,330,2013-04-01 15:33:00
10:58 AM,69.1,59.0,70,30.04,10.0,WSW,5.8,-,N/A,,Scattered Clouds,250,2013-04-01 15:58:00
11:58 AM,69.6,55.4,61,30.04,10.0,NW,8.1,-,N/A,,Scattered Clouds,310,2013-04-01 16:58:00
12:58 PM,72.9,52.7,49,30.03,10.0,NW,8.1,-,N/A,,Scattered Clouds,310,2013-04-01 17:58:00
1:58 PM,74.3,49.3,41,30.02,10.0,WNW,8.1,-,N/A,,Scattered Clouds,300,2013-04-01 18:58:00
2:58 PM,75.2,45.1,34,30.01,10.0,NNW,9.2,-,N/A,,Partly Cloudy,330,2013-04-01 19:58:00
3:58 PM,76.6,43.0,30,30.00,10.0,NW,9.2,-,N/A,,Clear,320,2013-04-01 20:58:00
4:58 PM,76.1,41.4,29,29.99,10.0,NW,9.2,-,N/A,,Clear,320,2013-04-01 21:58:00
5:59 PM,75.0,39.6,28,29.99,10.0,NNW,10.4,-,N/A,,Clear,330,2013-04-01 22:59:00
6:58 PM,70.5,40.8,34,30.00,10.0,NW,3.5,-,N/A,,Clear,320,2013-04-01 23:58:00
7:58 PM,63.1,42.6,47,30.01,10.0,NW,2.3,-,N/A,,Clear,310,2013-04-02 00:58:00
8:58 PM,58.5,46.9,66,30.03,10.0,Calm,Calm,-,N/A,,Clear,0,2013-04-02 01:58:00
9:58 PM,56.1,51.1,83,30.05,10.0,Calm,Calm,-,N/A,,Clear,0,2013-04-02 02:58:00
10:58 PM,54.5,49.5,83,30.05,10.0,SW,2.3,-,N/A,,Clear,220,2013-04-02 03:58:00
11:58 PM,53.6,49.3,85,30.06,10.0,West,2.3,-,N/A,,Clear,260,2013-04-02 04:58:00